Flag for Greece Weather past 2 weeks in Patras, Greece

Now
72 °F

Partly sunny.


Feels Like: 75 °F
Forecast: 58 / 73 °F
Wind: 5 mph from West

Location: Araxos Airport

Current Time: May 27, 2015 at 12:00:26 PM

Latest Report: May 27, 2015 at 11:20 AM


Visibility: N/A

Pressure: 29.74 "Hg

Humidity: 65%

Dew point: 59 °F

Location of PatrasLocation

Historic Weather in Patras — Graph

°F

Patras temperature yesterday

Maximum temperature yesterday: 77 °F (at 1:50 PM)
Minimum temperature yesterday: 55 °F (at 4:50 AM)
Average temperature yesterday: 67 °F

Past Weeks' High & Low Weather Summary

 TemperatureHumidityPressure
High82 °F (May 22, 6:50 PM)100% (May 14, 5:50 AM)30.12 "Hg (May 14, 5:50 AM)
Low52 °F (May 15, 4:50 AM)26% (May 12, 4:50 PM)29.68 "Hg (May 27, 5:50 AM)
Average69 °F68%29.93 "Hg
* Reported May 12 10:20 AM — May 27 10:50 AM, Patras, Weather by CustomWeather, © 2015

Note: Actual official high and low records may vary slightly from our data, if they occured in-between our weather recording intervals... More about our weather records

Advertising

Patras weather history for previous 24 hours

 ConditionsComfort  
Time TempWeatherWind HumidityBarometerVisibility
10:50 AM
Wed, May 27
73 °FScattered clouds.No wind61%29.71 "HgN/A
10:20 AM72 °FScattered clouds.No wind69%29.71 "HgN/A
9:50 AM70 °FScattered clouds.3 mph73%29.71 "HgN/A
9:20 AM72 °FScattered clouds.No wind73%29.71 "HgN/A
8:50 AM70 °FPassing clouds.No wind78%29.71 "HgN/A
8:20 AM66 °FPassing clouds.No wind83%29.71 "HgN/A
7:50 AM61 °FPassing clouds.No wind94%29.71 "HgN/A
7:20 AM57 °FPassing clouds.No wind100%29.71 "HgN/A
6:50 AM55 °FPassing clouds.No wind100%29.71 "HgN/A
6:20 AM55 °FPassing clouds.No wind100%29.68 "HgN/A
5:50 AM55 °FPassing clouds.No wind100%29.68 "HgN/A
4:50 AM55 °FClear.No wind100%29.71 "Hg10 mi
2:50 AM57 °FPassing clouds.No wind94%29.71 "HgN/A
1:50 AM59 °FPassing clouds.No wind94%29.74 "HgN/A
11:50 PM
Tue, May 26
61 °FPassing clouds.No wind88%29.77 "HgN/A
10:50 PM64 °FPassing clouds.No wind88%29.77 "HgN/A
9:50 PM64 °FPassing clouds.No wind83%29.74 "HgN/A
8:50 PM68 °FScattered clouds.No wind78%29.74 "HgN/A
8:20 PM70 °FPartly sunny.No wind73%29.74 "HgN/A
7:50 PM70 °FBroken clouds.5 mph69%29.74 "HgN/A
7:20 PM70 °FMore clouds than sun.No wind69%29.74 "HgN/A
6:50 PM70 °FMore clouds than sun.No wind73%29.74 "HgN/A
6:20 PM72 °FBroken clouds.No wind61%29.74 "HgN/A
5:50 PM72 °FBroken clouds.No wind65%29.74 "HgN/A
5:20 PM72 °FBroken clouds.No wind61%29.71 "HgN/A
4:50 PM72 °FBroken clouds.6 mph53%29.74 "HgN/A
4:20 PM73 °FBroken clouds.7 mph53%29.74 "HgN/A
3:50 PM73 °FBroken clouds.7 mph53%29.77 "HgN/A
3:20 PM75 °FScattered clouds.8 mph54%29.77 "HgN/A
2:50 PM75 °FScattered clouds.8 mph54%29.77 "HgN/A
2:20 PM75 °FPassing clouds.5 mph54%29.77 "HgN/A
1:50 PM77 °FPassing clouds.5 mph47%29.77 "HgN/A
1:20 PM75 °FSunny.5 mph41%29.77 "Hg10 mi
12:50 PM73 °FSunny.5 mph47%29.80 "Hg10 mi
12:20 PM73 °FSunny.5 mph47%29.80 "Hg10 mi
Weather by CustomWeather, © 2015

See weather overviewHow to use our weather pages